星链-3811 (STARLINK-3811 )

导读 | 豆包AI

STARLINK-3811是美国太空探索技术公司(SpaceX)星链(Starlink)互联网卫星星座的组成部分,于2022年4月29日发射升空。星链星座旨在为全球提供高速低延迟互联网服务,该卫星加入星座后,进一步扩展了星链的全球覆盖范围,推动了全球卫星互联网组网进程。

Basic Information
目录编号:
52383
目录名称:
STARLINK-3811
国际标识:
2022-045BE
轨道中心:
EARTH
卫星名称:
星链-3811
卫星全名:
星链-3811 (STARLINK-3811 )
卫星状态:
在轨 (已飞行1462 天)
发射日期:
2022-04-29 UTC
国别 :
美国 (US)
星等 :
--
Orbit Information
数据来源 国际轨道数据 AOE轨道数据
星历时间 2026-04-30T19:41:02+0800
11小时前
查看轨道信息
2026-04-30T03:00:00+0800
1天前
查看轨道信息
半长轴 6917.881km 6917.893km
偏心率 0.000131 0.0001298
轨道倾角 53.219° 53.218°
近地点辐角 91.839° 91.381°
升交点赤经 306.624° 309.746°
平近点角 268.275° 90.697°
近地点 538.837km 538.858km
远地点 540.651km 540.654km
周期 95.438分钟 95.438分钟
每日圈数 15.088401 15.088362
Detailed Information
固有亮度:
5
最大亮度:
2.5
卫星平台:
Starlink v1.5
覆盖范围:
全球
运营商:
太空探索技术公司
运营商所在国:
美国
制造商(研发单位):
太空探索技术公司
制造商所在国:
美国
使用方式:
暂无
Satellite Introduction
星链(Starlink)计划是由太空探索技术公司(SpaceX)提出的一个巨型低轨卫星互联网星座项目,计划在2019年至2024年间在太空搭建由约1.2万颗卫星组成的“星链”网络,其中1584颗将部署在地球上空550千米处的近地轨道,并从2020年开始工作。该卫星仍在工作。
2D Orbit Map
3D Orbit Map
Orbit Altitude Analysis Chart
Orbit Inclination Analysis Chart
Orbit Comprehensive Analysis Chart
View Comprehensive Chart